User: anonymous   Login
Location: Mission Viejo Division
(33.5624°N, 117.5924°W)
Time: 21:21:58
(UTC+00:00)
Language:

IRS-1D - Orbit

View from above orbital plane
View from above orbital plane
View from above satellite
View from above satellite

Ground track
Ground track

The orbit data is extracted from the following two-line orbital elements,

1 24971U 97057A   24206.38609131  .00000631  00000-0  23467-3 0  9991
2 24971  98.7646 175.4031 0053802 107.9128 252.7933 14.34804212403234
Epoch (UTC): 24 July 2024 09:15:58
Eccentricity: 0.0053802
inclination: 98.7646°
perigee height: 737 km
apogee height: 814 km
right ascension of ascending node: 175.4031°
argument of perigee: 107.9128°
revolutions per day: 14.34804212
mean anomaly at epoch: 252.7933°
orbit number at epoch: 40323

The dashed part of the orbit path shows where the satellite is in the earth's shadow,  

DLR